When you browse on this site, cookies collect data to enhance your experience and personalize the content and advertising you see.
Visit our Privacy Policy to learn more. By continuing to use the site, you agree to this use of cookies and data.
  • In United Kingdom
  • List of Countries
  • For 7 days
  • Water Temperature
  • Satellite Maps
  • Weather Map
  • Weather Widgets
  • user-avatar
    Login

    Hourly Weather Salawaj

    Today, 21 November, Wednesday

    Time Temperature Precipitation Wind Pressure Humidity
    00:00 +25°C° 0.1 mm 1 mps 744 mmHg 86%
    01:00 +25°C° 0.1 mm 1 mps 744 mmHg 87%
    02:00 +25°C° 0 mm 1 mps 743 mmHg 87%
    03:00 +24°C° 0 mm 1 mps 743 mmHg 87%
    04:00 +24°C° 0 mm 1 mps 743 mmHg 88%
    05:00 +25°C° 0 mm 1 mps 743 mmHg 86%
    06:00 +25°C° 0 mm 1 mps 744 mmHg 84%
    07:00 +23°C° 0 mm 0 mps 744 mmHg 82%
    08:00 +28°C° 0 mm 1 mps 744 mmHg 71%
    09:00 +31°C° 0 mm 1 mps 744 mmHg 60%
    10:00 +34°C° 0 mm 1 mps 745 mmHg 49%
    11:00 +35°C° 0 mm 1 mps 744 mmHg 45%
    12:00 +36°C° 0 mm 1 mps 743 mmHg 41%
    13:00 +37°C° 0 mm 1 mps 742 mmHg 37%
    14:00 +36°C° 0 mm 1 mps 742 mmHg 39%
    15:00 +35°C° 0 mm 1 mps 741 mmHg 41%
    16:00 +35°C° 0 mm 1 mps 741 mmHg 42%
    17:00 +32°C° 0 mm 1 mps 742 mmHg 52%
    18:00 +30°C° 0 mm 1 mps 742 mmHg 61%
    19:00 +27°C° 0 mm 1 mps 742 mmHg 70%
    20:00 +26°C° 0 mm 1 mps 743 mmHg 74%
    21:00 +26°C° 0 mm 1 mps 743 mmHg 79%
    22:00 +25°C° 0 mm 1 mps 744 mmHg 83%
    23:00 +25°C° 0 mm 1 mps 744 mmHg 85%

    Tomorrow, 22 November, Thursday

    Time Temperature Precipitation Wind Pressure Humidity
    00:00 +24°C° 0 mm 1 mps 744 mmHg 87%
    01:00 +24°C° 0 mm 1 mps 744 mmHg 89%
    02:00 +23°C° 0 mm 1 mps 743 mmHg 89%
    03:00 +23°C° 0 mm 1 mps 743 mmHg 90%
    04:00 +23°C° 0 mm 1 mps 743 mmHg 90%
    05:00 +24°C° 0 mm 1 mps 743 mmHg 89%
    06:00 +24°C° 0 mm 1 mps 744 mmHg 87%
    07:00 +25°C° 0 mm 1 mps 745 mmHg 86%
    08:00 +27°C° 0 mm 1 mps 745 mmHg 76%
    09:00 +29°C° 0 mm 2 mps 745 mmHg 67%
    10:00 +32°C° 0 mm 2 mps 745 mmHg 57%
    11:00 +32°C° 0 mm 2 mps 745 mmHg 55%
    12:00 +34°C° 0 mm 2 mps 744 mmHg 52%
    13:00 +35°C° 0 mm 2 mps 743 mmHg 50%
    14:00 +32°C° 0.3 mm 2 mps 743 mmHg 56%
    15:00 +31°C° 0.3 mm 2 mps 743 mmHg 61%
    16:00 +30°C° 0.3 mm 2 mps 742 mmHg 67%
    17:00 +29°C° 0.1 mm 2 mps 743 mmHg 73%
    18:00 +27°C° 0.1 mm 2 mps 744 mmHg 79%
    19:00 +26°C° 0.1 mm 1 mps 744 mmHg 85%
    20:00 +25°C° 0 mm 1 mps 745 mmHg 85%
    21:00 +25°C° 0 mm 1 mps 745 mmHg 85%
    22:00 +25°C° 0 mm 1 mps 745 mmHg 85%
    23:00 +25°C° 0 mm 1 mps 745 mmHg 85%

    Day after tomorrow, 23 November, Friday

    Time Temperature Precipitation Wind Pressure Humidity
    00:00 +25°C° 0 mm 1 mps 745 mmHg 86%
    01:00 +25°C° 0 mm 1 mps 745 mmHg 86%
    02:00 +24°C° 0 mm 1 mps 744 mmHg 88%
    03:00 +24°C° 0 mm 1 mps 744 mmHg 89%
    04:00 +24°C° 0 mm 1 mps 744 mmHg 91%
    05:00 +24°C° 0 mm 1 mps 744 mmHg 90%
    06:00 +24°C° 0 mm 1 mps 745 mmHg 88%
    07:00 +25°C° 0 mm 1 mps 745 mmHg 86%
    08:00 +26°C° 0 mm 1 mps 745 mmHg 78%
    09:00 +28°C° 0 mm 2 mps 746 mmHg 69%
    10:00 +30°C° 0 mm 2 mps 746 mmHg 60%
    11:00 +31°C° 0 mm 2 mps 745 mmHg 58%
    12:00 +31°C° 0 mm 3 mps 744 mmHg 55%
    13:00 +33°C° 0 mm 3 mps 744 mmHg 53%
    14:00 +31°C° 0 mm 3 mps 743 mmHg 56%
    15:00 +30°C° 0 mm 2 mps 743 mmHg 59%
    16:00 +29°C° 0 mm 2 mps 743 mmHg 61%
    17:00 +28°C° 0 mm 2 mps 743 mmHg 68%
    18:00 +26°C° 0 mm 1 mps 744 mmHg 75%
    19:00 +25°C° 0 mm 1 mps 744 mmHg 81%
    20:00 +24°C° 0 mm 1 mps 744 mmHg 84%
    21:00 +24°C° 0 mm 1 mps 744 mmHg 86%
    22:00 +23°C° 0 mm 1 mps 745 mmHg 88%
    23:00 +23°C° 0 mm 1 mps 744 mmHg 90%

    24 November, Saturday

    Time Temperature Precipitation Wind Pressure Humidity
    00:00 +23°C° 0 mm 1 mps 744 mmHg 91%
    01:00 +22°C° 0 mm 1 mps 743 mmHg 92%
    02:00 +22°C° 0 mm 1 mps 743 mmHg 92%
    03:00 +22°C° 0 mm 1 mps 743 mmHg 92%
    04:00 +22°C° 0 mm 1 mps 742 mmHg 93%
    05:00 +23°C° 0 mm 1 mps 743 mmHg 91%
    06:00 +23°C° 0 mm 1 mps 743 mmHg 89%
    07:00 +23°C° 0 mm 1 mps 744 mmHg 87%
    08:00 +26°C° 0 mm 1 mps 744 mmHg 77%
    09:00 +28°C° 0 mm 2 mps 744 mmHg 67%
    10:00 +31°C° 0 mm 2 mps 743 mmHg 57%
    11:00 +31°C° 0 mm 2 mps 743 mmHg 55%
    12:00 +32°C° 0 mm 2 mps 742 mmHg 54%
    13:00 +33°C° 0 mm 3 mps 742 mmHg 52%
    14:00 +31°C° 0 mm 3 mps 741 mmHg 55%
    15:00 +30°C° 0 mm 3 mps 741 mmHg 58%
    16:00 +29°C° 0 mm 3 mps 741 mmHg 61%
    17:00 +28°C° 0 mm 2 mps 741 mmHg 67%
    18:00 +27°C° 0 mm 2 mps 742 mmHg 73%
    19:00 +26°C° 0 mm 2 mps 743 mmHg 78%
    20:00 +25°C° 0.1 mm 2 mps 743 mmHg 81%
    21:00 +25°C° 0.1 mm 1 mps 743 mmHg 84%
    22:00 +24°C° 0.1 mm 1 mps 743 mmHg 87%
    23:00 +24°C° 0.1 mm 1 mps 743 mmHg 88%

    25 November, Sunday

    Time Temperature Precipitation Wind Pressure Humidity
    00:00 +24°C° 0.1 mm 1 mps 742 mmHg 89%
    01:00 +24°C° 0.1 mm 1 mps 742 mmHg 90%
    02:00 +24°C° 0.3 mm 1 mps 741 mmHg 90%
    03:00 +24°C° 0.3 mm 2 mps 741 mmHg 90%
    04:00 +24°C° 0.3 mm 2 mps 741 mmHg 90%
    05:00 +24°C° 0.9 mm 2 mps 741 mmHg 91%
    06:00 +24°C° 0.9 mm 2 mps 741 mmHg 92%
    07:00 +24°C° 0.9 mm 2 mps 742 mmHg 94%
    08:00 +24°C° 0.6 mm 2 mps 742 mmHg 94%
    09:00 +24°C° 0.6 mm 2 mps 742 mmHg 94%
    10:00 +24°C° 0.6 mm 2 mps 742 mmHg 94%
    11:00 +25°C° 0.3 mm 2 mps 742 mmHg 92%
    12:00 +26°C° 0.3 mm 2 mps 741 mmHg 90%
    13:00 +26°C° 0.3 mm 2 mps 740 mmHg 89%
    14:00 +26°C° 1.1 mm 2 mps 740 mmHg 91%
    15:00 +26°C° 1.1 mm 2 mps 739 mmHg 93%
    16:00 +25°C° 1.1 mm 2 mps 739 mmHg 95%
    17:00 +25°C° 1.1 mm 2 mps 740 mmHg 95%
    18:00 +25°C° 1.1 mm 2 mps 740 mmHg 96%
    19:00 +24°C° 1.1 mm 3 mps 741 mmHg 97%
    20:00 +24°C° 0.6 mm 3 mps 741 mmHg 97%
    21:00 +24°C° 0.6 mm 3 mps 741 mmHg 96%
    22:00 +24°C° 0.6 mm 3 mps 741 mmHg 96%
    23:00 +24°C° 0.9 mm 3 mps 741 mmHg 96%

    26 November, Monday

    Time Temperature Precipitation Wind Pressure Humidity
    00:00 +24°C° 0.9 mm 3 mps 741 mmHg 95%
    01:00 +22°C° 0.9 mm 3 mps 740 mmHg 95%
    02:00 +22°C° 1.5 mm 3 mps 740 mmHg 96%
    03:00 +23°C° 1.5 mm 2 mps 740 mmHg 97%
    04:00 +23°C° 1.5 mm 2 mps 740 mmHg 98%
    05:00 +23°C° 2.2 mm 2 mps 741 mmHg 98%
    06:00 +23°C° 2.2 mm 2 mps 741 mmHg 98%
    07:00 +23°C° 2.2 mm 2 mps 742 mmHg 98%
    08:00 +23°C° 1.3 mm 2 mps 742 mmHg 97%
    09:00 +23°C° 1.3 mm 2 mps 742 mmHg 97%
    10:00 +23°C° 1.3 mm 2 mps 743 mmHg 97%
    11:00 +24°C° 0.6 mm 2 mps 742 mmHg 94%
    12:00 +24°C° 0.6 mm 2 mps 742 mmHg 92%
    13:00 +25°C° 0.6 mm 2 mps 742 mmHg 89%
    14:00 +25°C° 0.3 mm 2 mps 741 mmHg 88%
    15:00 +25°C° 0.3 mm 2 mps 741 mmHg 87%
    16:00 +25°C° 0.3 mm 2 mps 741 mmHg 86%
    17:00 +25°C° 0.1 mm 2 mps 742 mmHg 89%
    18:00 +24°C° 0.1 mm 1 mps 742 mmHg 92%
    19:00 +23°C° 0.1 mm 1 mps 743 mmHg 94%
    20:00 +23°C° 0 mm 1 mps 743 mmHg 95%
    21:00 +23°C° 0 mm 1 mps 743 mmHg 95%
    22:00 +23°C° 0 mm 1 mps 744 mmHg 95%
    23:00 +23°C° 0 mm 1 mps 743 mmHg 96%
    Show more